User: anonymous   Login
Location: Enborne
(51.3833°N, 1.3667°W)
Time: 22:36:24
(UTC+00:00)
Language:

Cosmos 1842 - Orbit

View from above orbital plane
View from above orbital plane
View from above satellite
View from above satellite

Ground track
Ground track

The orbit data is extracted from the following two-line orbital elements,

1 17911U 87038A   20336.87649926  .00000834  00000-0  46251-4 0  9997
2 17911  82.5231  36.6719 0010495 203.3428 156.7328 15.12392935832448
Epoch (UTC): 01 December 2020 21:02:09
Eccentricity: 0.0010495
inclination: 82.5231°
perigee height: 521 km
apogee height: 536 km
right ascension of ascending node: 36.6719°
argument of perigee: 203.3428°
revolutions per day: 15.12392935
mean anomaly at epoch: 156.7328°
orbit number at epoch: 83244

The dashed part of the orbit path shows where the satellite is in the earth's shadow,  

DLR